Weather in Yasnogorskiy

Russia / Orenburg Oblast     52°34′05″N   54°01′55″E
temp.,
°C
wind,
m/s
gust,
m/s
humid.,
%
clouds,
%
prec.,
mm/h
press.,
hPa
HPBL,
m
27 november, sat
sat2723:00−4ssw7159663 0.0 1029341
02:00−4ssw7159571 0.0 1030440
05:00−6ssw613915 0.0 1031282
08:00−7ssw513885 0.0 1031236
11:00−7ssw5129648 0.0 1032240
14:00−6s411845 0.0 1031242
17:00−10se22865 0.0 103117
20:00−14se32915 0.0 103117
28 november, sun
sun2823:00−14se33895 0.0 103133
02:00−15se33895 0.0 103132
05:00−14se338719 0.0 102942
08:00−8se3118599 0.0 1028239
11:00−6se41483100 0.0 1027306
14:00−4sse61477100 0.0 1025354
17:00−3sse51280100 0.0 1025315
20:00−4sse41282100 0.0 1024277
29 november, mon
mon2923:00−3s4128393 0.0 1025298
02:00−3sse4984100 0.0 1024236
05:00−3sse3787100 0.0 1024186
08:00−3sse3886100 0.0 1024208
11:00−2sse2686100 0.0 1025192
14:00−1sse378677 0.0 1025212
17:00−1sse3886100 0.0 1025208
20:00−1sse378693 0.0 1025193
30 november, tue
tue3023:00−3se39855 0.0 1024188
02:00−8se3487100 0.0 102351
05:00−7s3981100 0.0 1023145
08:00−5sse61770100 0.0 1018303
11:00−2sse82070100 0.0 1014409
14:000sse81974100 0.0 1013527
17:00+1sse92077100 0.0 1009549
20:00+2s112279100 0.1 1006603
1 december, wed
wed123:00+2s92088100 1.3 1005611
02:00+1s81692100 3.6 1004503
05:00+1sse61397100 4.1 1003346
08:00+1sse71394100 0.9 1002367
11:00+1se51290100 1.1 1000309
14:00+1se51193100 0.0 997338
17:00+1se61291100 0.0 994430
20:00+1sse81498100 0.4 992525